Location: Jackson Park
(37.2862°N, 79.9123°W)
Time: 20:48:48
(UTC+00:00)

Vanguard 3 - Pass Details

Date: 18 May 2026
Orbit: 507 x 3205 km, 33.4° (Epoch: 31 May)

Event Time Altitude Azimuth Distance (km) Brightness Sun altitude
Rises 14:29:44 0° 186° (S) 5,257 11.4 49.8°
Reaches altitude 10° 14:34:20 10° 170° (S) 4,719 11.4 50.7°
Maximum altitude 14:43:20 20° 130° (SE) 4,660 12.0 52.4°
Drops below altitude 10° 14:54:22 10° 92° (E) 5,989 12.3 54.5°
Sets 15:01:19 0° 79° (ENE) 7,149 12.4 55.8°
